Weather in San Antonio

United States     29°25′33″N   98°29′28″W
В апреле 2022 года жителям России запретили посещать сайт meteo.paraplan.net по решению Генеральной прокуратуры. Аудитория сайта уменьшилась в 10 раз. Владельцы сайта не видят смысла в поддержке погодного сервера в таких условиях. Сайт будет закрыт в октябре.
temp.,
°C
wind,
m/s
gust,
m/s
humid.,
%
clouds,
%
prec.,
mm/h
press.,
hPa
HPBL,
m
4 october, tue
tue401:00+22ese1239100 0.0 101872
04:00+22nne1144100 0.0 101726
07:00+21ne114796 0.0 101722
10:00+25se224066 0.0 1019504
13:00+29se322677 0.0 10181750
16:00+30se322228 0.0 10142231
19:00+27sse34283 0.0 1015317
22:00+23sse35390 0.0 1016123
5 october, wed
wed501:00+21se24530 0.0 1017131
04:00+20s12660 0.0 101789
07:00+19ese01700 0.0 101851
10:00+24sse22560 0.0 1019453
13:00+29se33365 0.0 10181730
16:00+30ese33286 0.0 10152269
19:00+28ese35322 0.0 1015429
22:00+23se25435 0.0 1017135
6 october, thu
thu601:00+21s25625 0.0 1019148
04:00+20ssw12750 0.0 101995
07:00+20nw11774 0.0 101939
10:00+24e22545 0.0 1021479
13:00+30ese353314 0.0 10202057
16:00+31ese4426100 0.0 10172714
19:00+28ese3533100 0.0 1018502
22:00+25se3844100 0.0 1020284
7 october, fri
fri701:00+23s2565100 0.0 1020178
04:00+22w0172100 0.0 102085
07:00+21n117472 0.0 102144
10:00+25ene235599 0.0 1022539
13:00+30ese343560 0.0 10212246
16:00+31ese442856 0.0 10182923
19:00+27se583828 0.0 1019560
22:00+23s3762100 0.0 1021277
8 october, sat
sat801:00+21sw12705 0.0 1022118
04:00+21wnw11742 0.0 102158
07:00+20nne12754 0.0 102233
10:00+25ene235537 0.0 1024549
13:00+29se463518 0.0 10222070
16:00+30ese453014 0.0 10192423
19:00+27ssw353875 0.0 1019445
22:00+23sse38506 0.0 1021218